Torna al catalogo

STARLINK-34709

AttivoComunicazioniSSO
NORAD 64844·PAYLOAD·🇺🇸 United States

Lanciato Jul 19, 2025 da Vandenberg Space Force Base

Loading…

Prossimi Passaggi (prossime 24 ore)

TLE

AggiornatoSource: CelesTrak SupGP

Epoca: Sep 14, 2026, 22:47 UTC

1 64844C 25152C   26257.94979167  .00088111  00000+0  27355-2 0  2574
2 64844  97.2846 108.5058 0001852  96.8369  66.7182 15.33390679    15

Traccia STARLINK-34709 in tempo reale con AllMySat

Download on the App Store